Location: Dos Palmas
(32.4468°N, 116.8732°W)
Time: 05:32:05
(UTC+00:00)

Cosmos 1110 Rocket - Pass Details

Date: 20 June 2021
Orbit: 752 x 782 km, 74.0° (Epoch: 29 July)

Event Time Altitude Azimuth Distance (km) Brightness Sun altitude
Exits shadow 04:39:56 - 201° (SSW) 3,130 6.9 -18.2°
Reaches altitude 10° 04:42:09 10° 204° (SSW) 2,265 6.2 -18.5°
Maximum altitude 04:47:16 69° 287° (WNW) 806 4.2 -19.3°
Drops below altitude 10° 04:52:26 10° 11° (N) 2,290 6.9 -20.0°
Sets 04:54:50 0° 14° (NNE) 3,223 7.7 -20.3°
